Volver al catálogo

STARLINK-3166

ActivoComunicacionesVLEO
NORAD 51462·PAYLOAD·🇺🇸 United States

Lanzado Feb 3, 2022 desde Cape Canaveral Space Force Station

Loading…

Próximos Pases (próximas 24 horas)

TLE

ActualizadoSource: CelesTrak SupGP

Época: Sep 15, 2026, 01:46 UTC

1 51462C 22010G   26258.07409722  .00029886  00000+0  96123-3 0  2581
2 51462  53.1575 134.1577 0001307  83.3884 314.3938 15.31681240    12

Sigue STARLINK-3166 en tiempo real con AllMySat

Download on the App Store